{"data":{"norad_id":59432,"intl_designator":"2024-065M","name":"STARLINK-31780","alt_names":[],"object_type":"PAYLOAD","status":"ACTIVE","operator":null,"country":"US","launch_date":"2024-04-07","launch_site_code":"AFWTR","launch_vehicle":null,"mission":null,"orbit_class":"UNKNOWN","rcs_meters":null,"size_class":null,"mass_kg":null,"dimensions":null,"purposes":["comms"],"wikipedia_slug":null,"has_3d_model":false,"image_url":null,"decayed_at":null,"tle_current":{"epoch":"2026-05-24T19:25:33.480192Z","epoch_age_seconds":92333,"freshness":"FRESH","line1":"1 59432U 24065M   26144.80941528  .00001907  00000+0  76496-4 0  9996","line2":"2 59432  53.1605 288.1050 0001360  72.6747 287.4403 15.30201933120583","mean_motion":15.30201933,"eccentricity":0.000136,"inclination_deg":53.1605,"raan_deg":288.105,"arg_perigee_deg":72.6747,"mean_anomaly_deg":287.4403,"bstar":7.6496e-5,"rev_number":12058,"period_min":94.105226829562,"perigee_km":474.27724273932,"apogee_km":476.14135293233,"semimajor_km":6853.3462978358,"source":"CELESTRAK","updated_at":"2026-05-25T13:38:18.945930Z"}}}